Flag for Seychelles Weather past 2 weeks in Victoria, Seychelles

Now
81 °F

Scattered clouds.


Feels Like: 87 °F
Forecast: 75 / 81 °F
Wind: No wind

Location: National Airport

Current Time: Mar 4, 2015 at 7:50:35 AM

Latest Report: Mar 4, 2015 at 7:00 AM


Visibility: N/A

Pressure: 29.83 "Hg

Humidity: 89%

Dew point: 77 °F

Location of VictoriaLocation

Historic Weather in Victoria — Graph

°F

Victoria temperature yesterday

Maximum temperature yesterday: 86 °F (at 11:00 AM)
Minimum temperature yesterday: 79 °F (at 10:00 PM)
Average temperature yesterday: 82 °F

Past Weeks' High & Low Weather Summary

 TemperatureHumidityPressure
High88 °F (Feb 22, 2:00 PM)100% (Feb 19, 8:00 PM)29.92 "Hg (Feb 19, 8:00 PM)
Low75 °F (Feb 19, 11:00 PM)62% (Feb 22, 2:00 PM)29.74 "Hg (Feb 25, 2:00 PM)
Average82 °F78%29.83 "Hg
* Reported Feb 17 6:00 AM — Mar 4 6:00 AM, Victoria, Weather by CustomWeather, © 2015

Note: Actual official high and low records may vary slightly from our data, if they occured in-between our weather recording intervals... More about our weather records

Advertising

Victoria weather history for previous 24 hours

 ConditionsComfort  
Time TempWeatherWind HumidityBarometerVisibility
6:00 AM
Wed, Mar 4
82 °FPassing clouds.6 mph84%29.83 "HgN/A
5:00 AM81 °FPassing clouds.No wind89%29.80 "HgN/A
4:00 AM81 °FPassing clouds.7 mph89%29.80 "HgN/A
3:00 AM82 °FPassing clouds.6 mph84%29.80 "HgN/A
2:00 AM81 °FPassing clouds.No wind89%29.83 "HgN/A
1:00 AM81 °FPassing clouds.No wind89%29.86 "HgN/A
12:00 AM81 °FPassing clouds.2 mph84%29.86 "HgN/A
11:00 PM
Tue, Mar 3
81 °FPassing clouds.No wind89%29.89 "HgN/A
10:00 PM79 °FPassing clouds.No wind94%29.89 "HgN/A
9:00 PM81 °FPassing clouds.2 mph89%29.89 "HgN/A
8:00 PM81 °FPassing clouds.6 mph89%29.86 "HgN/A
7:00 PM81 °FSprinkles. Passing clouds.6 mph94%29.83 "HgN/A
6:00 PM81 °FWarm.12 mph84%29.80 "HgN/A
5:00 PM82 °FSprinkles. Partly sunny.6 mph84%29.80 "HgN/A
4:00 PM86 °FPartly sunny.7 mph75%29.80 "HgN/A
3:00 PM86 °FPartly sunny.7 mph75%29.80 "HgN/A
2:00 PM86 °FScattered clouds.7 mph75%29.80 "HgN/A
1:00 PM86 °FScattered clouds.6 mph75%29.83 "HgN/A
12:00 PM86 °FScattered clouds.6 mph75%29.86 "HgN/A
11:00 AM86 °FScattered clouds.3 mph75%29.89 "HgN/A
10:00 AM84 °FScattered clouds.5 mph79%29.92 "HgN/A
9:00 AM84 °FPartly sunny.6 mph79%29.89 "HgN/A
8:00 AM82 °FPartly sunny.7 mph84%29.89 "HgN/A
7:00 AM82 °FPartly sunny.7 mph84%29.86 "HgN/A
Weather by CustomWeather, © 2015

See weather overviewHow to use our weather pages